Location: ?????
(55.6500°N, 37.2500°E)
Time: 02:16:24
(UTC+00:00)

USA 229 DEB - Pass Details

Date: 19 May 2025
Orbit: 872 x 1339 km, 63.4° (Epoch: 10 June)

Event Time Altitude Azimuth Distance (km) Brightness Sun altitude
Exits shadow 23:20:44 - 251° (WSW) 3,397 5.9 -10.6°
Reaches altitude 10° 23:22:37 10° 255° (WSW) 2,716 5.4 -10.5°
Maximum altitude 23:28:56 60° 335° (NNW) 1,192 4.2 -10.1°
Drops below altitude 10° 23:36:05 10° 55° (NE) 3,051 7.3 -9.6°
Sets 23:39:01 0° 59° (ENE) 4,085 8.0 -9.4°
